Flag for Germany Weather past 2 weeks in Mühlacker, Baden-Württemberg, Germany

Now
43 °F

Light rain. Partly sunny.


Feels Like: 38 °F
Forecast: 33 / 53 °F
Wind: 8 mph from Northwest

Location: Stuttgart-Echterdingen


UV Index: 3 (Moderate)

Visibility: N/A


Pressure: 29.89 "Hg

Humidity: 76%

Dew point: 36 °F

Location of MühlackerLocation

Historic Weather in Mühlacker

°F

Mühlacker temperature yesterday

Maximum temperature yesterday: 59 °F (at 3:50 PM)
Minimum temperature yesterday: 32 °F (at 5:20 AM)
Average temperature yesterday: 46 °F

Past Weeks' High & Low Weather Summary

 TemperatureHumidityPressure
High70 °F (Apr 3, 1:50 PM)94% (Apr 5, 10:20 PM)30.36 "Hg (Apr 5, 10:20 PM)
Low32 °F (Apr 16, 6:20 AM)21% (Apr 17, 5:20 PM)29.65 "Hg (Apr 3, 5:50 PM)
Average52 °F61%30.06 "Hg
* Reported Apr 3 12:20 PM — Apr 18 12:50 PM, Mühlacker, Weather by CustomWeather, © 2014

Note: Actual official high and low records may vary slightly from our data, if they occured in-between our weather recording intervals... More about our weather records

Advertising

Historic Weather Conditions — Data for Previous 24 hours

 ConditionsComfort  
Time TempWeatherWind HumidityBarometerVisibility
12:50 PM
Apr 18
43 °FLight rain. Partly sunny.15 mph76%29.89 "HgN/A
12:20 PM43 °FLight rain. Partly sunny.10 mph87%29.89 "HgN/A
11:50 AM45 °FPartly sunny.13 mph81%29.89 "HgN/A
11:20 AM45 °FLight rain. Partly sunny.13 mph87%29.89 "HgN/A
10:50 AM45 °FLight rain. Partly sunny.16 mph81%29.89 "HgN/A
10:20 AM46 °FPartly sunny.13 mph76%29.86 "HgN/A
9:50 AM46 °FPartly sunny.5 mph76%29.86 "HgN/A
9:20 AM48 °FPartly sunny.5 mph71%29.86 "HgN/A
8:50 AM48 °FBroken clouds.5 mph71%29.86 "HgN/A
8:20 AM48 °FBroken clouds.3 mph71%29.86 "HgN/A
7:50 AM48 °FLight rain. Partly sunny.6 mph66%29.86 "HgN/A
7:20 AM48 °FLight rain. Passing clouds.3 mph66%29.86 "HgN/A
6:50 AM46 °FLight rain. Passing clouds.3 mph66%29.86 "HgN/A
6:20 AM46 °FLight rain. Partly cloudy.1 mph62%29.86 "HgN/A
5:50 AM46 °FLight rain. Passing clouds.2 mph57%29.86 "HgN/A
5:20 AM43 °FClear.1 mph66%29.86 "Hg10 mi
4:50 AM43 °FClear.5 mph66%29.86 "Hg10 mi
4:20 AM45 °FClear.1 mph61%29.89 "Hg10 mi
3:50 AM45 °FClear.1 mph61%29.89 "Hg10 mi
3:20 AM46 °FClear.3 mph53%29.89 "Hg10 mi
2:50 AM45 °FClear.6 mph57%29.92 "Hg10 mi
2:20 AM43 °FClear.5 mph57%29.92 "Hg10 mi
1:20 AM43 °FClear.3 mph57%29.95 "Hg10 mi
12:50 AM41 °FClear.3 mph57%29.95 "Hg10 mi
12:20 AM45 °FClear.5 mph49%29.95 "Hg10 mi
11:50 PM
Apr 17
43 °FClear.3 mph57%29.98 "Hg10 mi
11:20 PM48 °FClear.2 mph40%29.98 "Hg10 mi
10:50 PM43 °FClear.3 mph53%29.98 "Hg10 mi
10:20 PM46 °FClear.1 mph46%29.98 "Hg10 mi
9:50 PM48 °FClear.2 mph40%30.01 "Hg10 mi
9:20 PM50 °FClear.2 mph35%29.98 "Hg10 mi
8:50 PM50 °FSunny.3 mph35%30.01 "Hg10 mi
8:20 PM54 °FSunny.5 mph30%30.01 "Hg10 mi
7:50 PM55 °FSunny.5 mph28%30.01 "Hg10 mi
6:50 PM59 °FSunny.5 mph23%30.01 "Hg10 mi
6:20 PM59 °FSunny.6 mph23%30.04 "Hg10 mi
5:50 PM59 °FSunny.6 mph25%30.04 "Hg10 mi
5:20 PM59 °FSunny.3 mph21%30.04 "Hg10 mi
4:50 PM59 °FSunny.5 mph23%30.07 "Hg10 mi
4:20 PM59 °FPassing clouds.5 mph23%30.07 "HgN/A
3:50 PM59 °FPassing clouds.7 mph25%30.09 "HgN/A
3:20 PM57 °FSunny.3 mph23%30.09 "Hg10 mi
2:50 PM57 °FSunny.3 mph27%30.12 "Hg10 mi
2:20 PM57 °FPassing clouds.6 mph29%30.12 "HgN/A
1:50 PM55 °FSunny.6 mph26%30.15 "Hg10 mi
1:20 PM54 °FPassing clouds.7 mph28%30.15 "HgN/A
Weather by CustomWeather, © 2014

See weather overview